SCP
0 0 0 0 0 0 0 0 0 0 0 0 0 0 0 0 0 0 0 0 0 0 0 0 0 0 0 0 0 0 0 0 0 0 0 0 0 0 0 0 0 0 0
0 0 0 0 0 0 0 0 0 0 0 0 0 0 0 0 0 0 0 0 0 0 0 0 0 0 0 0 0 0 0 0 0 0 0 0 0 0 0 0 0 0 0
0 0 0 0 0 0 0 1 0 0 0 0 0 0 0 0 0 0 0 0 0 0 0 0 0 0 0 0 0 0 0 0 0 0 0 0 0 0 0 0 0 0 0
0 0 0 0 0 0 1 1 0 0 0 0 0 0 0 0 0 0 0 0 0 0 0 0 0 0 0 0 0 0 0 0 0 0 0 0 0 0 0 0 0 0 0
0 0 1 1 0 0 1 0 0 0 0 0 0 0 0 0 0 0 0 0 0 0 0 0 0 0 0 0 0 0 0 0 0 0 0 0 0 0 0 0 0 0 0
0 0 0 1 0 0 0 0 0 0 0 0 0 0 0 0 0 0 0 0 0 0 0 0 0 0 0 0 0 0 0 0 0 0 0 0 0 0 0 0 0 0 0
0 0 0 0 0 0 0 0 0 0 0 0 0 0 0 0 0 0 0 0 0 0 0 0 0 0 0 0 0 0 0 0 0 0 0 0 0 0 0 0 0 0 0
0 0 0 0 0 0 0 0 0 0 0 0 0 0 0 0 0 0 0 0 0 0 0 0 0 0 0 0 0 0 0 0 0 0 0 0 0 0 0 0 0 0 0
0 0 0 0 0 0 0 0 0 0 0 0 0 0 0 0 0 0 0 0 0 0 0 0 0 0 0 0 0 0 0 0 0 0 0 0 0 0 0 0 0 0 0
0 0 0 0 0 0 0 0 0 0 0 0 0 0 0 0 0 0 0 0 0 0 0 0 0 0 0 0 0 0 0 0 0 0 0 0 0 0 0 0 0 0 0
0 0 0 0 0 0 0 0 0 0 0 0 0 0 0 0 0 0 0 0 0 0 0 0 0 0 0 0 0 0 0 0 0 0 0 0 0 0 0 0 0 0 0
0 0 0 0 0 0 0 0 0 0 0 0 0 0 0 0 0 0 0 0 0 0 0 0 0 0 0 0 0 0 0 0 0 0 0 0 0 0 0 0 0 0 0
0 0 0 0 0 0 0 0 0 0 0 0 0 0 0 0 0 0 0 0 0 0 0 0 0 0 0 0 0 0 0 0 0 0 0 0 0 0 0 0 0 0 0
0 0 0 0 0 0 0 0 0 0 0 0 0 0 0 0 0 0 0 0 0 0 0 0 0 0 0 0 0 0 0 0 0 0 0 0 0 0 0 0 0 0 0
0 0 0 0 0 0 0 0 0 0 0 0 0 0 0 0 0 0 0 0 0 0 0 0 0 0 0 0 0 0 0 0 0 0 0 0 0 0 0 0 0 0 0
0 0 0 0 0 0 0 0 0 0 0 0 0 0 0 0 0 0 0 0 0 0 0 0 0 0 0 0 0 0 0 0 0 -0 -0 0 0 0 0 0 0 0 0
0 0 0 0 0 0 0 0 0 0 0 0 0 0 0 0 0 0 0 0 0 0 0 0 0 0 0 0 0 0 0 0 0 0 0 0 0 0 0 0 0 0 0
0 0 0 0 0 0 0 0 0 0 0 0 0 0 0 0 0 0 0 0 0 0 0 0 0 0 0 0 0 0 0 0 0 0 0 0 0 0 0 0 0 0 0
0 0 0 0 0 0 0 0 0 0 0 0 0 0 0 0 0 0 0 0 0 0 0 0 0 0 0 0 0 0 0 0 0 0 0 0 0 0 0 0 0 0 0
0 0 0 0 0 0 0 0 0 0 0 0 0 0 0 0 0 0 0 0 0 0 0 0 0 0 0 0 0 0 0 0 0 0 0 0 0 0 0 0 0 0 0
0 0 0 0 0 0 0 0 0 0 0 0 0 0 0 0 0 0 0 0 0 0 0 0 0 0 0 0 0 0 0 0 0 0 0 0 0 0 0 0 0 0 0
0 0 0 0 0 0 0 0 0 0 0 0 0 0 0 0 0 0 0 0 0 0 0 0 0 0 0 0 0 0 0 0 0 0 0 0 0 0 0 0 0 0 0
0 0 0 0 0 0 0 0 0 0 0 0 0 0 0 0 0 0 0 0 0 0 0 0 0 0 0 0 0 0 0 0 0 0 0 0 0 0 0 0 0 0 0
0 0 0 0 0 0 0 0 0 0 0 0 0 0 0 0 0 0 0 0 0 0 0 0 0 0 0 0 0 0 0 0 0 0 0 0 0 0 0 0 0 0 0
0 0 0 0 0 0 0 0 0 0 0 0 0 0 0 0 0 0 0 0 0 0 0 0 0 0 0 0 0 0 0 0 0 0 0 0 0 0 0 0 0 0 0
0 0 0 0 0 0 0 0 0 0 0 0 0 0 0 0 0 0 0 0 0 0 0 0 0 0 0 0 0 0 0 0 0 0 0 0 0 0 0 0 0 0 0
Wind_Speed
6 6 6 7 8 8 10 12 10 9 8 6 5 5 4 3 3 3 5 6 5 5 5 4 4 3 3 3 3 2 3 2 1 2 3 3 3 2 2 1 1 1 0
5 7 7 7 9 10 10 11 10 9 8 6 5 3 4 3 2 2 4 5 6 6 5 5 4 4 3 3 3 3 2 2 2 2 2 2 2 3 3 2 1 1 1
8 8 8 8 9 9 10 10 10 9 8 7 5 4 4 3 2 2 3 3 5 5 5 6 5 4 4 3 3 3 4 3 2 1 3 3 2 1 2 3 2 2 1
8 8 8 9 9 9 8 8 9 9 8 8 8 8 5 4 4 4 3 3 4 5 5 6 5 5 4 4 3 3 2 3 2 1 1 1 2 2 0 2 2 2 2
9 10 9 9 9 9 9 9 9 8 8 8 9 8 5 3 3 3 5 4 3 4 5 5 5 5 4 4 4 3 3 2 3 2 2 2 2 1 2 1 2 2 2
7 8 8 7 7 8 9 9 10 8 8 8 8 8 8 7 6 5 5 4 3 3 4 5 5 5 4 4 4 4 4 3 3 2 2 2 2 2 2 2 1 1 2
6 8 9 9 9 9 10 9 10 9 9 9 8 8 8 9 8 7 7 5 4 3 5 5 5 4 4 5 4 4 4 4 4 3 2 2 2 2 3 3 1 0 1
5 7 9 9 10 10 10 10 11 10 10 9 9 8 8 6 5 7 6 6 5 5 5 6 6 5 6 5 5 3 4 3 4 4 3 2 2 2 3 3 3 1 1
6 6 7 8 9 10 10 11 11 9 9 9 8 7 8 7 7 6 6 5 4 5 6 6 6 6 6 6 6 4 4 4 4 4 4 2 2 2 2 2 3 4 2
5 5 6 7 7 8 8 8 9 9 8 8 8 7 7 7 7 6 6 6 6 5 6 7 7 6 6 6 6 4 4 5 4 3 4 3 2 2 2 2 2 2 3
6 6 6 6 6 6 7 7 8 7 7 8 7 7 7 7 7 7 7 7 6 6 7 7 7 7 7 7 6 6 6 6 5 4 5 5 4 3 2 2 2 2 3
5 5 5 6 6 7 6 7 7 8 8 8 7 7 7 7 7 7 7 7 7 7 7 7 7 8 8 8 8 8 7 7 7 7 6 6 4 5 4 3 4 3 4
4 4 5 5 6 6 6 6 7 7 7 7 7 7 7 7 8 7 7 7 7 6 6 7 8 8 8 8 9 8 8 8 8 8 8 7 7 6 5 5 5 4 4
4 4 4 4 5 5 6 6 6 6 6 6 7 7 7 7 7 7 7 7 7 7 8 8 8 8 8 8 8 8 8 8 8 8 8 8 8 8 7 6 6 5 4
4 4 4 4 4 4 4 5 5 5 5 6 6 6 5 5 5 6 6 6 7 8 7 7 7 7 7 7 8 8 8 8 8 8 8 9 10 10 8 6 7 6 5
4 4 4 4 4 4 4 4 4 5 5 6 6 5 4 4 5 5 6 6 6 6 6 7 8 8 7 9 12 10 8 8 8 8 7 8 9 10 12 12 10 9 7
5 4 3 2 2 3 3 4 3 4 5 5 4 4 4 4 4 4 4 5 6 5 6 6 7 7 8 9 11 12 8 7 7 7 6 6 6 7 7 9 10 11 12
5 5 4 3 2 2 3 3 4 5 5 4 4 4 4 4 3 3 4 4 4 4 5 5 6 6 6 8 9 10 8 6 6 6 6 6 6 6 7 7 7 7 8
5 5 5 5 4 4 4 6 5 5 5 4 3 3 3 3 3 3 3 2 2 3 3 2 4 4 4 6 8 8 5 5 6 6 5 6 6 7 7 6 7 7 6
7 7 7 8 8 5 5 8 7 6 5 3 3 3 3 3 3 2 1 1 1 1 1 1 1 2 3 3 6 7 4 4 4 4 4 6 6 6 5 6 6 7 7
9 9 9 10 8 7 8 10 8 6 5 5 5 5 4 3 2 2 2 2 1 2 1 1 1 0 1 1 2 4 4 4 3 3 3 3 5 6 6 7 6 8 6
10 10 10 10 9 8 9 10 8 5 5 6 7 7 6 4 4 4 3 3 2 2 1 1 1 1 1 1 1 1 2 2 2 3 2 2 2 3 4 4 6 7 5
9 9 10 11 10 9 9 10 6 5 7 8 7 6 7 6 5 5 4 3 3 2 2 1 1 2 2 2 3 2 1 0 1 1 1 1 2 2 2 3 4 4 3
8 8 10 11 9 9 9 8 6 6 8 8 7 6 6 6 6 5 4 4 3 2 2 2 1 1 2 2 2 1 1 1 0 1 1 2 2 1 2 3 2 2 3
7 8 9 9 8 8 9 8 7 7 9 8 7 6 6 5 5 5 4 3 2 2 1 1 1 1 2 3 3 2 2 2 1 1 1 2 2 2 2 2 2 2 2
7 8 9 9 8 8 8 8 7 7 7 7 6 5 4 4 4 4 5 7 6 7 7 5 3 2 2 3 4 4 3 2 2 2 1 1 2 2 3 3 3 3 3
Wind_Direction
190 178 183 178 174 177 174 173 173 168 158 155 153 151 156 152 152 163 156 153 151 149 141 133 131 134 136 140 133 112 90 63 62 80 43 16 17 30 23 2 4 6 354
177 176 177 177 178 180 178 174 172 168 163 163 153 145 137 140 141 148 146 152 151 152 150 143 145 142 130 126 128 126 115 73 57 112 103 42 1 2 16 15 24 7 8
188 185 181 181 183 181 181 178 173 167 160 151 131 121 107 97 110 137 148 159 156 157 149 151 147 147 144 148 147 142 136 127 72 74 140 146 198 309 347 10 22 10 16
189 187 185 186 188 185 178 169 165 162 158 156 159 162 160 160 175 165 158 155 159 156 154 153 151 150 150 153 159 144 138 135 133 93 57 104 147 145 76 345 358 6 14
188 188 188 190 184 177 170 164 159 162 163 167 168 167 159 148 139 138 147 155 157 162 162 157 154 155 157 159 151 142 143 140 147 152 137 101 72 86 136 180 332 354 355
190 188 182 177 173 167 165 165 165 167 166 167 168 169 163 156 152 157 162 163 157 164 172 164 163 164 162 162 158 154 151 146 141 145 149 154 152 157 144 156 221 310 322
183 178 173 174 173 171 169 170 168 173 171 170 173 176 172 168 172 172 172 169 168 179 187 175 171 172 174 170 160 156 160 159 154 159 161 164 162 150 146 139 153 228 318
177 179 177 175 176 175 173 173 175 179 176 177 178 176 172 174 181 179 173 180 186 188 180 179 178 178 174 172 166 163 172 167 168 169 161 157 166 164 162 155 147 131 342
176 181 174 173 175 177 178 179 176 176 179 179 174 175 178 182 183 180 176 180 185 184 179 180 180 181 180 174 166 174 179 170 176 175 171 166 177 176 174 161 157 152 177
173 171 170 174 177 176 171 169 171 176 176 175 178 182 184 187 181 175 182 186 190 186 177 183 186 186 184 180 175 175 179 175 184 183 177 179 182 180 173 170 167 160 166
179 177 169 167 164 159 160 166 169 168 172 178 179 180 184 184 180 184 191 191 190 188 189 189 189 190 189 185 184 189 183 187 194 193 192 199 186 184 183 173 170 174 168
171 165 155 152 153 159 163 171 173 176 181 179 179 185 183 180 185 194 194 189 192 193 194 190 192 197 195 190 192 198 195 197 201 203 199 208 197 197 194 189 192 193 193
153 142 141 154 164 165 168 176 176 181 178 172 177 182 184 186 192 196 192 189 193 192 191 190 197 202 200 198 203 203 202 205 208 205 205 210 200 207 204 202 205 205 203
144 145 149 156 161 163 168 175 177 175 171 168 173 185 193 194 196 195 192 192 192 193 196 200 204 205 203 203 205 206 209 212 215 214 214 214 208 213 209 209 212 208 205
134 157 163 158 155 157 164 174 174 168 166 166 176 192 191 186 187 192 195 195 198 205 200 201 205 204 201 206 205 207 212 216 222 223 222 222 220 219 213 213 212 205 210
135 147 149 150 165 175 173 173 176 168 163 171 183 180 167 171 187 199 196 196 203 207 201 204 205 205 211 211 207 204 211 214 219 225 227 229 229 228 224 225 218 205 208
117 114 119 140 164 176 172 173 173 152 152 166 167 159 164 178 194 197 194 199 204 204 207 211 208 213 218 213 209 206 204 209 216 221 224 231 229 223 230 234 232 226 224
95 94 97 98 98 106 123 128 118 125 135 138 142 147 163 185 187 184 195 204 199 200 208 213 214 217 225 217 212 207 205 211 218 218 220 226 236 232 225 231 236 238 236
81 80 82 84 81 87 108 109 104 110 114 122 131 142 155 158 156 181 196 195 197 207 206 195 204 216 237 219 210 200 203 214 223 223 222 224 234 239 224 227 241 251 254
73 76 76 73 67 58 88 98 93 91 88 88 90 92 105 117 134 168 157 150 174 192 171 148 171 207 239 232 213 196 199 217 229 227 228 226 229 238 228 228 236 250 257
70 70 68 64 55 55 77 83 80 74 70 75 74 69 72 86 88 82 76 85 93 94 93 87 55 39 293 284 215 194 200 213 224 228 232 236 235 240 238 231 234 245 258
68 69 71 62 49 51 73 78 70 63 70 73 70 62 55 58 62 69 64 68 79 81 66 62 25 5 357 7 355 174 200 214 218 235 237 239 250 254 249 238 249 256 256
73 71 74 66 52 47 63 70 51 56 69 68 61 56 54 52 52 60 61 60 59 64 52 57 41 14 13 14 22 27 21 314 227 290 340 334 311 294 276 261 264 264 255
73 73 74 70 56 47 53 56 49 60 70 65 56 52 54 49 47 50 52 59 53 50 49 59 47 14 5 3 5 20 26 18 360 340 356 357 341 318 293 298 294 271 250
74 74 77 72 59 50 48 41 42 61 67 61 53 48 46 46 44 46 46 46 42 43 59 35 34 28 358 344 352 23 20 20 25 35 28 8 350 336 322 306 293 281 270
81 78 74 71 61 54 46 35 37 57 67 60 49 45 45 45 46 46 42 41 45 42 54 54 51 33 19 8 24 31 30 26 47 65 14 325 306 295 296 297 296 287 278